www.pogodaiklimat.ru

Погода и климат >> Архив погоды >> Индонезия >> Маджене


ПОГОДА в Маджене

  • Прогноз погоды в Маджене
  • Монитор погоды в Маджене

АРХИВ ПОГОДЫ в Маджене

Время (UTC), дата Ветер
(напр.,м/с)
 
Видим.   Явления Облачность Т
(С)
Тd
(С)
f
(%)
Тe
(С)
Тes
(С)
Комфортность P
(гПа)
Po
(гПа)
Тmin
(С)
Tmax
(С)
R
(мм)
R24
(мм)
S
(см)
03 9.06 В 2 11 км слаб. дождь 10/5 540 м
[Cu Sc Ac As]
+26.2 +24.4 90 +37 +39 очень
душно
1012.2 1008.7 0.7
06 9.06 Ю 1 11 км в посл. час дождь 9/4 540 м
[Cu Sc Ac As Ci fib]
+28.0 +24.2 80 +39 +45 очень
душно
1010.7 1007.2 0.4
09 9.06 штиль 0 11 км осадки на расстоянии 9/3 540 м
[Cu med, cong Ac As Ci fib]
+27.7 +23.7 79 +38 +39 очень
душно
1009.8 1006.3
12 9.06 В 3 9000 м осадки на расстоянии 9/5 540 м
[Cu Sc Ac As Ci fib]
+26.8 +24.6 88 +38 +38 очень
душно
1010.8 1007.3 +30.0
15 9.06 В 4 9000 м 9/5 540 м
[Cu Sc Ac As Ci fib]
+26.7 +24.2 86 +37 +37 очень
душно
1010.7 1007.2
18 9.06 В 4 9000 м 8/3 540 м
[Cu med, cong Ac trans Ci fib]
+26.3 +24.1 88 +37 +37 очень
душно
1009.6 1006.1
21 9.06 В 2 9000 м 8/3 540 м
[Cu med, cong Ac trans Ci fib]
+25.8 +23.8 89 +35 +35 очень
душно
1009.3 1005.8
00 10.06 В 1 12 км 5/3 540 м
[Cu med, cong Ac trans Ci fib]
+28.0 +23.9 78 +39 +41 очень
душно
1010.6 1007.1 +25.0 1
03 10.06 В 3 12 км 6/3 540 м
[Cu med, cong Ac trans Ci fib]
+30.2 +24.8 73 +43 +51 опасность
перегрева
1010.1 1006.6
06 10.06 В 1 12 км 6/3 540 м
[Cu med, cong Ac trans Ci fib]
+30.8 +25.7 74 +45 +54 опасность
перегрева
1008.3 1004.8
09 10.06 ЮВ 1 12 км 6/3 540 м
[Cu med, cong Ac trans Ci fib]
+30.0 +25.4 76 +44 +45 опасность
перегрева
1008.1 1004.6
12 10.06 В 2 9000 м 8/3 540 м
[Cu med, cong Ac trans Ci fib]
+28.4 +25.5 84 +42 +42 опасность
перегрева
1010.3 1006.8 +31.1
15 10.06 Ю 1 9000 м 9/3 540 м
[Cu med, cong Ac trans Ci fib]
+27.7 +25.1 86 +40 +40 очень
душно
1011.2 1007.7
18 10.06 В 2 9000 м 9/3 540 м
[Cu med, cong Ac trans Ci fib]
+27.3 +24.8 86 +39 +39 очень
душно
1010.6 1007.1
21 10.06 ЮВ 2 9000 м 8/3 540 м
[Cu med, cong Ac trans Ci fib]
+27.0 +24.8 88 +39 +39 очень
душно
1011.2 1007.7
00 11.06 СВ 2 12 км 9/4 540 м
[Cu med, cong Ac trans Ci fib]
+26.8 +25.0 90 +39 +40 очень
душно
1012.7 1009.2 +25.8
03 11.06 В 3 11 км слаб. дождь 9/4 540 м
[Cu med, cong Ac As Ci fib]
+27.6 +25.0 86 +40 +45 очень
душно
1012.8 1009.3 0.0
06 11.06 ЮВ 3 12 км {дождь} 8/3 540 м
[Cu med, cong Ac trans Ci fib]
+29.2 +24.4 75 +41 +47 опасность
перегрева
1010.9 1007.4 0.0
09 11.06 В 2 12 км 8/3 540 м
[Cu med, cong Ac trans Ci fib]
+29.6 +25.3 78 +43 +44 опасность
перегрева
1010.0 1006.5
12 11.06 В 3 9000 м 5/3 540 м
[Cu med, cong Ac trans Ci fib]
+27.8 +24.0 80 +39 +39 очень
душно
1011.1 1007.6 +30.0
15 11.06 В 3 9000 м 5/3 540 м
[Cu med, cong Ac trans Ci fib]
+27.2 +23.0 78 +36 +36 очень
душно
1011.7 1008.2
18 11.06 ЮВ 3 9000 м 8/3 540 м
[Cu med, cong Ac trans Ci fib]
+27.2 +23.3 79 +37 +37 очень
душно
1010.7 1007.2
21 11.06 В 3 9000 м 8/3 540 м
[Cu med, cong Ac trans Ci fib]
+26.4 +23.4 84 +36 +36 очень
душно
1010.9 1007.4
00 12.06 В 4 11 км слаб. дождь 9/5 540 м
[Cu Sc Ac As Ci fib]
+26.4 +24.0 87 +37 +37 очень
душно
1012.9 1009.4 +25.8 0.0
03 12.06 В 3 12 км {дождь} 9/4 540 м
[Cu med, cong Ac As Ci fib]
+29.0 +24.7 78 +41 +46 опасность
перегрева
1012.4 1008.9 0.0
06 12.06 В 4 12 км {дождь} 8/3 540 м
[Cu med, cong Ac trans Ci fib]
+30.6 +24.6 70 +43 +48 опасность
перегрева
1009.6 1006.1 0.0
09 12.06 В 3 12 км 8/3 540 м
[Cu med, cong Ac trans Ci fib]
+28.6 +24.2 77 +40 +40 очень
душно
1009.2 1005.7
12 12.06 В 5 9000 м 8/3 540 м
[Cu med, cong Ac trans Ci fib]
+26.7 +23.4 82 +36 +36 очень
душно
1011.2 1007.6 +30.9
15 12.06 В 4 9000 м осадки на расстоянии 8/3 540 м
[Cu med, cong Ac trans Ci fib]
+26.0 +24.2 90 +36 +36 очень
душно
1012.3 1008.8
18 12.06 В 2 9000 м слаб. дождь 10/4 540 м
[Cu med, cong Ac As]
+24.6 +23.9 96 +34 +34 очень
душно
1011.3 1007.8 10
21 12.06 В 2 8000 м слаб. дождь 10/5 540 м
[Cu Sc Ac As]
+24.2 +23.8 98 +33 +33 очень
душно
1011.2 1007.7 10
00 13.06 СВ 1 10 км слаб. дождь 10/5 540 м
[Cu Sc Ac As]
+24.8 +24.4 98 +35 +35 очень
душно
1011.8 1008.3 +23.8 6
03 13.06 В 2 12 км {дождь} 8/3 540 м
[Cu med, cong Ac trans Ci fib]
+28.2 +25.0 83 +41 +48 опасность
перегрева
1011.3 1007.8 0.0
06 13.06 В 28 12 км {дождь} 6/3 540 м
[Cu med, cong Ac trans Ci fib]
+30.2 +25.4 76 +44 +44 опасность
перегрева
1009.2 1005.7 0.0
09 13.06 штиль 0 12 км 6/3 540 м
[Cu med, cong Ac trans Ci fib]
+29.2 +25.5 80 +43 +44 опасность
перегрева
1008.7 1005.2
12 13.06 СВ 2 8000 м слаб. дождь 9/3 540 м
[Cu med, cong Ac As Ci fib]
+24.2 +23.7 97 +33 +33 очень
душно
1011.6 1008.1 +30.6 25
15 13.06 СВ 1 10 км осадки на расстоянии 6/3 540 м
[Cu med, cong Ac trans Ci fib]
+24.2 +23.4 95 +32 +32 очень
душно
1012.0 1008.5 0.1
18 13.06 СВ 1 10 км {дождь} 8/3 540 м
[Cu med, cong Ac trans Ci fib]
+24.2 +23.5 96 +33 +33 очень
душно
1010.1 1006.6 0.1
21 13.06 штиль 0 10 км 9/4 540 м
[Cu Sc Ac trans Ci fib]
+24.8 +23.8 94 +34 +34 очень
душно
1009.8 1006.3
00 14.06 В 2 12 км 6/3 540 м
[Cu med, cong Ac trans Ci fib]
+27.2 +24.7 86 +39 +41 очень
душно
1011.4 1007.9 +24.3 25
03 14.06 В 3 12 км 5/3 540 м
[Cu med, cong Ac trans Ci fib]
+29.2 +24.6 76 +41 +49 опасность
перегрева
1010.9 1007.4
06 14.06 В 2 12 км 5/3 540 м
[Cu med, cong Ac trans Ci fib]
+30.4 +25.6 76 +45 +53 опасность
перегрева
1008.6 1005.1
09 14.06 В 2 12 км 9/3 540 м
[Cu med, cong Ac trans Ci fib]
+29.6 +25.6 79 +44 +44 опасность
перегрева
1008.4 1004.9
12 14.06 В 2 10 км {дождь} 8/3 540 м
[Cu med, cong Ac trans Ci fib]
+28.4 +25.8 86 +42 +42 опасность
перегрева
1010.2 1006.7 +30.6 0.0
15 14.06 В 3 10 км 6/3 540 м
[Cu med, cong Ac trans Ci fib]
+27.6 +25.0 86 +40 +40 очень
душно
1011.6 1008.1
18 14.06 В 3 10 км 6/3 540 м
[Cu med, cong Ac trans Ci fib]
+27.0 +24.0 84 +37 +37 очень
душно
1010.6 1007.1
21 14.06 В 5 10 км 6/3 540 м
[Cu med, cong Ac trans Ci fib]
+26.7 +23.3 82 +36 +36 очень
душно
1010.8 1007.3
00 15.06 В 5 12 км 8/3 540 м
[Cu med, cong Ac trans Ci fib]
+28.2 +22.9 73 +38 +39 очень
душно
1012.1 1008.6 +26.2 0.0
03 15.06 В 4 12 км 8/3 540 м
[Cu med, cong Ac trans Ci fib]
+28.4 +23.4 74 +38 +44 очень
душно
1012.4 1008.9
06 15.06 В 3 12 км 8/3 540 м
[Cu med, cong Ac trans Ci fib]
+30.4 +22.8 64 +40 +45 очень
душно
1009.5 1006.0
09 15.06 ЮВ 2 12 км 8/3 540 м
[Cu med, cong Ac trans Ci fib]
+29.6 +25.6 79 +44 +44 опасность
перегрева
1009.8 1006.3
12 15.06 Ю 4 10 км 5/3 540 м
[Cu med, cong Ac trans Ci fib]
+27.8 +23.7 78 +38 +38 очень
душно
1011.8 1008.3 +31.0
15 15.06 В 3 10 км 5/3 540 м
[Cu med, cong Ac trans Ci fib]
+26.8 +22.6 78 +35 +35 очень
душно
1012.0 1008.5
18 15.06 В 3 10 км 5/3 540 м
[Cu med, cong Ac trans Ci fib]
+26.2 +22.9 82 +35 +35 очень
душно
1010.9 1007.4
21 15.06 штиль 0 10 км 5/3 540 м
[Cu med, cong Ac trans Ci fib]
+24.6 +22.1 86 +32 +32 очень
душно
1010.8 1007.4
00 16.06 СВ 2 12 км 6/3 540 м
[Cu med, cong Ac trans Ci fib]
+27.0 +23.1 79 +36 +39 очень
душно
1012.7 1009.2 +23.2

 

Местоположение метеостанции Маджене (Индонезия): широта -2.50 долгота 119.00 высота над уровнем моря 8 м.

В архиве по умолчанию представлена погода в Маджене за последнюю неделю. Архивные данные за месяц целиком и за предыдущие месяцы, начиная с января 2011 года, Вы можете получить, выбрав интересующий диапазон дат из раскрывающегося списка и нажав кнопку "Ввод!".


*Определитесь, кто Вы:
робот инопланетянин человек

Внимание! Время в таблицах - всемирное. Для получения местного времени необходимо прибавить поправку, которая равна 8 ч.

Смотрите также архив погоды в соседних городах и на ближайших метеорологических станциях:

Погода в Масамбе (Индонезия) (151 км)
Погода в Палу (Индонезия) (218 км)
Погода в Посо (Индонезия) (229 км)
Погода в Баликпапане (Индонезия) (271 км)
Погода в Аэропорту Султана Хасануддин (Индонезия) (292 км)
Погода в Уджангпанданге (Индонезия) (292 км)
Погода в Самаринде (Индонезия) (293 км)
Погода в Котабару (Индонезия) (326 км)
Погода в Колаке (Индонезия) (345 км)
Погода в Кендари (Индонезия) (420 км)

Пояснения к столбцам:

Ветер - указаны скорость ветра в м/с - средняя за 10 мин, порывы в срок и между сроками (в фигурных скобках) и направление, откуда дует ветер: С - северный, СВ - северо-восточный, В - восточный, ЮВ - юго-восточный, Ю - южный, ЮЗ - юго-западный, З - западный, СЗ - северо-западный.
Видимость - горизонтальная дальность видимости в метрах или километрах. При видимости от 1 до 10 км при отсутствии осадков обычно наблюдается дымка, при ухудшении видимости до 1 км и менее - туман. В сухую погоду видимость может ухудшаться дымом, пылью или мглою.
Явления - указаны атмосферные явления, наблюдавшиеся в срок или в последний час перед сроком; фигурными скобками обозначены явления, наблюдавшиеся между сроками (за 1-3 часа до срока); квадратными скобками обозначены град или гололедные отложения с указанием их диаметра в мм.
Облачность - указаны через наклонную черту общая и нижняя облачность в баллах и высота нижней границы облаков в метрах; квадратными скобками обозначены формы облаков: Ci - перистые, Cs - перисто-слоистые, Cc - перисто-кучевые, Ac - высококучевые, As - высокослоистые, Sc - слоисто-кучевые, Ns - слоисто-дождевые, Cu - кучевые, Cb - кучево-дождевые. Подробнее классификацию облаков см. в Атласе облаков (PDF).
T - Температура воздуха - температура, измеренная на высоте 2 м над землей.
Td - Температура точки росы - температура, при понижении до которой содержащийся в воздухе водяной пар достигнет насыщения.
f - Относительная влажность воздуха - влажноcть воздуха, измеренная на высоте 2 м над землей.
Te - Эффективная температура - температура, которую ощущает одетый по сезону человек в тени. Характеристика душности погоды. При расчете учитывается влияние влажности воздуха и скорости ветра на теплоощущения человека.
Tes - Эффективная температура на солнце - температура, которую ощущает человек, с поправкой на солнечный нагрев. Характеристика знойности погоды. Зависит от высоты солнца над горизонтом, облачности и скорости ветра. Ночью, в пасмурную погоду, а также при ветре 12 м/с и более поправка равна нулю.
P - Атмосферное давление - приведенное к уровню моря атмосферное давление.
Po - Атмосферное давление - измеренное на уровне метеостанции атмосферное давление.
Tmin - Минимальная температура - минимум температуры воздуха на высоте 2 м над землей.
Tmax - Максимальная температура - максимум температуры воздуха на высоте 2 м над землей.
R - Количество осадков - Количество выпавших осадков за период времени, мм. При наведении курсора мыши на число - период времени, за который выпало указанное количество осадков.
R24 - Количество осадков - Количество выпавших осадков за 24 часа, мм.
S - Снежный покров - Высота снежного покрова, см. При наведении курсора мыши на число - состояние снежного покрова и степень покрытия местности в баллах.